San Benito, TX

1:40 PM CDT on September 29, 2016 (GMT -0500)
Valley International

Weather History for KHRL - February, 2014

Change the Weather History Date:

Wednesday, February 26, 2014

  Actual Average Record
Temperature  
Mean Temperature 58 °F 65 °F  
Max Temperature 72 °F 76 °F 95 °F (1913)
Min Temperature 44 °F 54 °F 30 °F (1880)
Degree Days  
Heating Degree Days 7 3  
Month to date heating degree days 166 113  
Since 1 July heating degree days 799 561  
Cooling Degree Days 0 3  
Month to date cooling degree days 92 69  
Year to date cooling degree days 111 118  
Growing Degree Days 8 (Base 50)    
Moisture  
Dew Point 53 °F    
Average Humidity 88    
Maximum Humidity 93    
Minimum Humidity 82    
Precipitation  
Precipitation 0.02 in 0.03 in 2.17 in (1983)
Month to date precipitation 0.16 1.34  
Year to date precipitation 1.00 2.40  
Sea Level Pressure  
Sea Level Pressure 30.03 in    
Wind  
Wind Speed 14 mph (NNE)    
Max Wind Speed 31 mph    
Max Gust Speed 40 mph    
Visibility 9 miles    
Events Rain    
T = Trace of Precipitation, MM = Missing Value Source: NWS Daily Summary

Daily Weather History Graph

Daily Weather History Graph

Search for Another Location

Airport or City:

Trip Planner

Search our weather history database for the weather conditions in past years. The results will help you decide how hot, cold, wet, or windy it might be!

Date:

Astronomy

Feb. 26, 2014 Rise Set
Actual Time 6:56 AM CST 6:30 PM CST
Civil Twilight 6:33 AM CST 6:53 PM CST
Nautical Twilight 6:06 AM CST 7:20 PM CST
Astronomical Twilight 5:40 AM CST 7:47 PM CST
Moon 4:32 AM CST (2/26) 3:56 PM CST (2/26)
Length of Visible Light 12h 20m
Length of Day
11h 33m
Waning Crescent, 10% of the Moon is Illuminated
Feb 26
Waning Crescent
Mar 1
New
Mar 8
First Quarter
Mar 16
Full
Mar 23
Last Quarter

Hourly Weather History & Observations

Time (CST) Temp. Windchill Dew Point Humidity Pressure Visibility Wind Dir Wind Speed Gust Speed Precip Events Conditions
12:52 AM 72.0 °F - 70.0 °F 93% 29.88 in 9.0 mi SSE 5.8 mph - N/A   Overcast
1:13 AM 71.6 °F - 69.8 °F 94% 29.87 in 9.0 mi SSE 6.9 mph - N/A   Overcast
1:52 AM 72.0 °F - 70.0 °F 93% 29.87 in 10.0 mi South 4.6 mph - N/A   Overcast
2:26 AM 71.6 °F - 69.8 °F 94% 29.86 in 10.0 mi Calm Calm - N/A   Overcast
2:52 AM 72.0 °F - 70.0 °F 93% 29.86 in 9.0 mi Calm Calm - N/A   Overcast
3:52 AM 72.0 °F - 70.0 °F 93% 29.86 in 9.0 mi NNE 4.6 mph - N/A   Overcast
4:32 AM 71.6 °F - 69.8 °F 94% 29.86 in 9.0 mi NNE 4.6 mph - N/A   Overcast
4:52 AM 72.0 °F - 70.0 °F 93% 29.86 in 8.0 mi NE 4.6 mph - N/A   Overcast
5:44 AM 71.6 °F - 69.8 °F 94% 29.87 in 6.0 mi East 4.6 mph - N/A   Overcast
5:52 AM 72.0 °F - 70.0 °F 93% 29.87 in 7.0 mi East 4.6 mph - N/A   Overcast
6:52 AM 72.0 °F - 70.0 °F 93% 29.90 in 7.0 mi Calm Calm - N/A   Overcast
7:26 AM 71.6 °F - 69.8 °F 94% 29.91 in 7.0 mi NNE 6.9 mph - N/A   Overcast
7:37 AM 62.6 °F - 60.8 °F 94% 29.94 in 7.0 mi NE 24.2 mph 32.2 mph 0.00 in Rain Light Rain
7:52 AM 60.1 °F - 57.9 °F 93% 29.95 in 5.0 mi NNE 24.2 mph 40.3 mph 0.00 in Rain Light Rain
8:52 AM 57.0 °F - 55.0 °F 93% 30.02 in 8.0 mi NNE 23.0 mph 35.7 mph 0.01 in Rain Light Rain
9:52 AM 55.9 °F - 54.0 °F 93% 30.04 in 10.0 mi NNE 19.6 mph 33.4 mph 0.01 in   Overcast
10:52 AM 55.0 °F - 52.0 °F 89% 30.06 in 10.0 mi NNE 19.6 mph 31.1 mph N/A   Overcast
11:07 AM 55.4 °F - 51.8 °F 88% 30.06 in 10.0 mi NNE 17.3 mph 27.6 mph N/A   Overcast
11:52 AM 53.1 °F - 50.0 °F 89% 30.07 in 9.0 mi North 25.3 mph 31.1 mph N/A   Overcast
12:01 PM 53.6 °F - 50.0 °F 88% 30.07 in 8.0 mi North 20.7 mph 29.9 mph N/A   Overcast
12:52 PM 52.0 °F - 48.9 °F 89% 30.06 in 7.0 mi North 23.0 mph 29.9 mph N/A   Overcast
1:52 PM 50.0 °F - 46.9 °F 89% 30.08 in 5.0 mi NNW 19.6 mph 26.5 mph N/A   Overcast
2:52 PM 48.0 °F - 46.0 °F 93% 30.07 in 3.0 mi North 20.7 mph 26.5 mph 0.00 in Rain Light Rain
3:52 PM 48.0 °F - 45.0 °F 89% 30.08 in 10.0 mi North 19.6 mph - 0.00 in Rain Light Rain
4:09 PM 46.4 °F 38.3 °F 44.6 °F 93% 30.08 in 8.0 mi North 23.0 mph - 0.00 in   Overcast
4:52 PM 46.9 °F - 44.1 °F 90% 30.09 in 6.0 mi North 20.7 mph - 0.00 in   Overcast
5:22 PM 46.4 °F 38.5 °F 42.8 °F 87% 30.09 in 10.0 mi North 21.9 mph - N/A   Overcast
5:52 PM 46.9 °F - 42.1 °F 83% 30.11 in 10.0 mi North 16.1 mph - N/A   Overcast
6:03 PM 46.4 °F 39.0 °F 42.8 °F 87% 30.11 in 9.0 mi NNW 19.6 mph - N/A   Overcast
6:52 PM 46.0 °F 39.0 °F 41.0 °F 83% 30.14 in 10.0 mi North 17.3 mph 24.2 mph N/A   Overcast
7:33 PM 46.4 °F 40.4 °F 41.0 °F 81% 30.15 in 10.0 mi North 13.8 mph - N/A   Overcast
7:52 PM 46.0 °F 39.6 °F 41.0 °F 83% 30.16 in 10.0 mi North 15.0 mph - N/A   Overcast
8:49 PM 46.4 °F 40.7 °F 41.0 °F 81% 30.16 in 10.0 mi North 12.7 mph 21.9 mph 0.00 in   Overcast
8:50 PM 46.0 °F 41.0 °F 41.0 °F 83% 30.16 in 10.0 mi North 10.4 mph - 0.00 in   Overcast
8:57 PM 46.4 °F 40.1 °F 39.2 °F 76% 30.17 in 10.0 mi North 15.0 mph - N/A   Overcast
9:52 PM 46.0 °F 40.6 °F 41.0 °F 83% 30.19 in 10.0 mi NNW 11.5 mph - 0.00 in   Overcast
10:35 PM 46.4 °F 40.4 °F 39.2 °F 76% 30.18 in 10.0 mi North 13.8 mph - N/A   Overcast
10:52 PM 45.0 °F 38.5 °F 39.9 °F 82% 30.18 in 10.0 mi North 13.8 mph - N/A   Mostly Cloudy
11:05 PM 44.6 °F 38.8 °F 39.2 °F 81% 30.18 in 10.0 mi North 11.5 mph - N/A   Mostly Cloudy
11:52 PM 45.0 °F 38.5 °F 39.0 °F 80% 30.19 in 10.0 mi North 13.8 mph - N/A   Overcast